| time (UTC) | temp F | wind direction | speed MPH | gust MPH | rain 1hr in | rain 24hr in | rain mn in | humidity % | barometer mb |
| 20260510135203 | 64 | 81 | 3.0 | 7.0 | 0.01 | 0.01 | 0.01 | 92 | 1011.8 |
| 20260510134803 | 64 | 77 | 2.0 | 7.0 | 0.01 | 0.01 | 0.01 | 91 | 1011.7 |
| 20260510134403 | 64 | 77 | 4.0 | 6.0 | 0.00 | 0.00 | 0.00 | 91 | 1011.7 |
| 20260510134003 | 64 | 82 | 2.0 | 6.0 | 0.00 | 0.00 | 0.00 | 91 | 1011.7 |
| 20260510133603 | 64 | 79 | 2.0 | 4.0 | 0.00 | 0.00 | 0.00 | 91 | 1012.0 |
| 20260510133203 | 64 | 86 | 2.0 | 4.0 | 0.00 | 0.00 | 0.00 | 91 | 1012.0 |
| 20260510132804 | 64 | 88 | 2.0 | 6.0 | 0.00 | 0.00 | 0.00 | 90 | 1012.1 |
| 20260510132404 | 64 | 84 | 2.0 | 6.0 | 0.00 | 0.00 | 0.00 | 90 | 1011.9 |
| 20260510132003 | 64 | 86 | 2.0 | 6.0 | 0.00 | 0.00 | 0.00 | 90 | 1011.8 |
| 20260510131603 | 64 | 87 | 2.0 | 6.0 | 0.00 | 0.00 | 0.00 | 90 | 1011.9 |
| 20260510131203 | 64 | 85 | 4.0 | 6.0 | 0.00 | 0.00 | 0.00 | 89 | 1012.0 |
| 20260510130803 | 64 | 86 | 3.0 | 6.0 | 0.00 | 0.00 | 0.00 | 89 | 1012.0 |
| 20260510130403 | 64 | 88 | 2.0 | 6.0 | 0.00 | 0.00 | 0.00 | 88 | 1012.2 |
| 20260510130004 | 64 | 86 | 2.0 | 6.0 | 0.00 | 0.00 | 0.00 | 87 | 1012.2 |
| 20260510125603 | 64 | 95 | 2.0 | 4.0 | 0.00 | 0.00 | 0.00 | 88 | 1012.1 |
| 20260510125203 | 64 | 96 | 2.0 | 4.0 | 0.00 | 0.00 | 0.00 | 86 | 1012.1 |
| 20260510124803 | 64 | 93 | 2.0 | 4.0 | 0.00 | 0.00 | 0.00 | 86 | 1012.3 |
| 20260510124403 | 65 | 91 | 2.0 | 4.0 | 0.00 | 0.00 | 0.00 | 85 | 1012.1 |
| 20260510124003 | 65 | 86 | 1.0 | 4.0 | 0.00 | 0.00 | 0.00 | 85 | 1012.3 |
| 20260510123814 | 65 | 86 | 1.0 | 4.0 | 0.00 | 0.00 | 0.00 | 84 | 1012.2 |
| 20260510123203 | 65 | 90 | 2.0 | 6.0 | 0.00 | 0.00 | 0.00 | 82 | 1012.3 |
| 20260510122803 | 65 | 93 | 1.0 | 6.0 | 0.00 | 0.00 | 0.00 | 82 | 1012.4 |
| 20260510122403 | 66 | 92 | 3.0 | 6.0 | 0.00 | 0.00 | 0.00 | 79 | 1012.4 |
| 20260510122003 | 66 | 89 | 2.0 | 4.0 | 0.00 | 0.00 | 0.00 | 79 | 1012.3 |
| 20260510121603 | 67 | 88 | 1.0 | 4.0 | 0.00 | 0.00 | 0.00 | 78 | 1012.4 |
| 20260510121203 | 67 | 69 | 1.0 | 4.0 | 0.00 | 0.00 | 0.00 | 75 | 1012.5 |
| 20260510120803 | 67 | 62 | 1.0 | 4.0 | 0.00 | 0.00 | 0.00 | 74 | 1012.3 |
| 20260510120403 | 67 | 95 | 1.0 | 4.0 | 0.00 | 0.00 | 0.00 | 73 | 1012.4 |
| 20260510120004 | 67 | 91 | 0.0 | 4.0 | 0.00 | 0.00 | 0.00 | 73 | 1012.3 |
| 20260510115603 | 67 | 84 | 3.0 | 4.0 | 0.00 | 0.00 | 0.00 | 73 | 1012.3 |
| 20260510115203 | 67 | 83 | 2.0 | 4.0 | 0.00 | 0.00 | 0.00 | 73 | 1012.4 |
| 20260510114803 | 67 | 76 | 1.0 | 4.0 | 0.00 | 0.00 | 0.00 | 75 | 1012.4 |
| 20260510114616 | 67 | 76 | 0.0 | 4.0 | 0.00 | 0.00 | 0.00 | 74 | 1012.4 |
| 20260510114003 | 67 | 91 | 1.0 | 4.0 | 0.00 | 0.00 | 0.00 | 75 | 1012.3 |
| 20260510113815 | 67 | 93 | 1.0 | 4.0 | 0.00 | 0.00 | 0.00 | 74 | 1012.5 |
| 20260510113203 | 67 | 72 | 0.0 | 6.0 | 0.00 | 0.00 | 0.00 | 75 | 1012.4 |
| 20260510112803 | 68 | 26 | 2.0 | 6.0 | 0.00 | 0.00 | 0.00 | 75 | 1012.5 |
| 20260510112403 | 67 | 16 | 2.0 | 6.0 | 0.00 | 0.00 | 0.00 | 74 | 1012.6 |
| 20260510112003 | 67 | 34 | 2.0 | 6.0 | 0.00 | 0.00 | 0.00 | 75 | 1012.5 |
| 20260510111817 | 67 | 68 | 2.0 | 6.0 | 0.00 | 0.00 | 0.00 | 75 | 1012.4 |
| 20260510111203 | 67 | 100 | 2.0 | 4.0 | 0.00 | 0.00 | 0.00 | 75 | 1012.5 |
| 20260510110804 | 68 | 86 | 2.0 | 4.0 | 0.00 | 0.00 | 0.00 | 76 | 1012.8 |
| 20260510110403 | 68 | 74 | 2.0 | 2.0 | 0.00 | 0.00 | 0.00 | 76 | 1012.9 |
| 20260510110004 | 68 | 75 | 1.0 | 2.0 | 0.00 | 0.00 | 0.00 | 76 | 1012.6 |
| 20260510105603 | 68 | 40 | 0.0 | 4.0 | 0.00 | 0.00 | 0.00 | 77 | 1012.9 |
| 20260510105203 | 68 | 30 | 0.0 | 4.0 | 0.00 | 0.00 | 0.00 | 78 | 1012.7 |
| 20260510104803 | 67 | 21 | 2.0 | 4.0 | 0.00 | 0.00 | 0.00 | 77 | 1012.6 |
| 20260510104403 | 67 | 27 | 2.0 | 4.0 | 0.00 | 0.00 | 0.00 | 77 | 1012.5 |
| 20260510104003 | 67 | 31 | 2.0 | 4.0 | 0.00 | 0.00 | 0.00 | 77 | 1013.1 |
| 20260510103815 | 67 | 38 | 1.0 | 4.0 | 0.00 | 0.00 | 0.00 | 77 | 1012.8 |
| 20260510103203 | 67 | 43 | 1.0 | 4.0 | 0.00 | 0.00 | 0.00 | 77 | 1013.0 |
| 20260510102803 | 67 | 26 | 1.0 | 4.0 | 0.00 | 0.00 | 0.00 | 78 | 1012.9 |
| 20260510102403 | 67 | 19 | 0.0 | 4.0 | 0.00 | 0.00 | 0.00 | 78 | 1013.1 |
| 20260510102003 | 67 | 20 | 2.0 | 4.0 | 0.00 | 0.00 | 0.00 | 79 | 1012.9 |
| 20260510101603 | 67 | 31 | 2.0 | 4.0 | 0.00 | 0.00 | 0.00 | 79 | 1012.8 |
| 20260510101203 | 67 | 37 | 2.0 | 4.0 | 0.00 | 0.00 | 0.00 | 80 | 1013.0 |
| 20260510100803 | 67 | 17 | 1.0 | 4.0 | 0.00 | 0.00 | 0.00 | 79 | 1013.1 |
| 20260510100615 | 67 | 8 | 1.0 | 4.0 | 0.00 | 0.00 | 0.00 | 78 | 1013.4 |
| 20260510095603 | 67 | 24 | 1.0 | 4.0 | 0.00 | 0.00 | 0.00 | 79 | 1010.6 |
| 20260510095203 | 67 | 17 | 1.0 | 4.0 | 0.00 | 0.00 | 0.00 | 80 | 1010.5 |
| 20260510094803 | 67 | 55 | 1.0 | 4.0 | 0.00 | 0.00 | 0.00 | 80 | 1010.6 |
| 20260510094403 | 67 | 72 | 0.0 | 2.0 | 0.00 | 0.00 | 0.00 | 81 | 1010.6 |
| 20260510094003 | 67 | 73 | 2.0 | 2.0 | 0.00 | 0.00 | 0.00 | 81 | 1010.7 |
| 20260510093603 | 67 | 70 | 1.0 | 2.0 | 0.00 | 0.00 | 0.00 | 81 | 1010.6 |
| 20260510093203 | 67 | 25 | 1.0 | 2.0 | 0.00 | 0.00 | 0.00 | 81 | 1010.5 |
| 20260510092803 | 67 | 353 | 0.0 | 4.0 | 0.00 | 0.00 | 0.00 | 81 | 1010.5 |
| 20260510092403 | 67 | 349 | 0.0 | 4.0 | 0.00 | 0.00 | 0.00 | 79 | 1010.5 |
| 20260510092003 | 67 | 359 | 0.0 | 4.0 | 0.00 | 0.00 | 0.00 | 80 | 1010.4 |
| 20260510091603 | 67 | 12 | 1.0 | 4.0 | 0.00 | 0.00 | 0.00 | 80 | 1010.4 |
| 20260510091417 | 67 | 10 | 2.0 | 4.0 | 0.00 | 0.00 | 0.00 | 80 | 1010.4 |
| 20260510091016 | 67 | 2 | 2.0 | 6.0 | 0.00 | 0.00 | 0.00 | 80 | 1010.4 |
| 20260510090616 | 67 | 8 | 1.0 | 6.0 | 0.00 | 0.00 | 0.00 | 80 | 1010.4 |
| 20260510090004 | 67 | 26 | 2.0 | 6.0 | 0.00 | 0.00 | 0.00 | 81 | 1010.6 |
| 20260510085814 | 67 | 22 | 1.0 | 6.0 | 0.00 | 0.00 | 0.00 | 80 | 1010.7 |
| 20260510085203 | 67 | 18 | 1.0 | 6.0 | 0.00 | 0.00 | 0.00 | 83 | 1010.5 |
| 20260510084803 | 66 | 27 | 2.0 | 4.0 | 0.00 | 0.00 | 0.00 | 84 | 1010.8 |
| 20260510084612 | 66 | 26 | 2.0 | 4.0 | 0.00 | 0.00 | 0.00 | 83 | 1010.7 |
| 20260510084003 | 66 | 31 | 2.0 | 4.0 | 0.00 | 0.00 | 0.00 | 84 | 1010.8 |
| 20260510083603 | 66 | 64 | 0.0 | 4.0 | 0.00 | 0.00 | 0.00 | 84 | 1010.8 |
| 20260510083203 | 66 | 75 | 0.0 | 6.0 | 0.00 | 0.00 | 0.00 | 84 | 1010.7 |
| 20260510082803 | 66 | 80 | 2.0 | 6.0 | 0.00 | 0.00 | 0.00 | 85 | 1010.7 |
| 20260510082403 | 66 | 66 | 1.0 | 6.0 | 0.00 | 0.00 | 0.00 | 85 | 1010.7 |
| 20260510082003 | 66 | 79 | 2.0 | 4.0 | 0.00 | 0.00 | 0.00 | 84 | 1010.5 |
| 20260510081813 | 66 | 69 | 2.0 | 4.0 | 0.00 | 0.00 | 0.00 | 84 | 1010.8 |
| 20260510081204 | 66 | 46 | 2.0 | 6.0 | 0.00 | 0.00 | 0.00 | 84 | 1010.3 |
| 20260510080803 | 66 | 33 | 3.0 | 6.0 | 0.00 | 0.00 | 0.00 | 83 | 1010.6 |
| 20260510080403 | 66 | 28 | 0.0 | 4.0 | 0.00 | 0.00 | 0.00 | 84 | 1010.1 |
| 20260510080004 | 66 | 21 | 0.0 | 4.0 | 0.00 | 0.00 | 0.00 | 84 | 1010.4 |
| 20260510075603 | 66 | 28 | 1.0 | 6.0 | 0.00 | 0.00 | 0.00 | 83 | 1010.3 |
| 20260510075414 | 66 | 31 | 2.0 | 6.0 | 0.00 | 0.00 | 0.00 | 83 | 1010.6 |
| 20260510074803 | 66 | 16 | 1.0 | 4.0 | 0.00 | 0.00 | 0.00 | 82 | 1010.4 |
| 20260510074403 | 66 | 24 | 2.0 | 4.0 | 0.00 | 0.00 | 0.00 | 83 | 1010.5 |
| 20260510074003 | 66 | 4 | 2.0 | 4.0 | 0.00 | 0.00 | 0.00 | 83 | 1010.5 |
| 20260510073603 | 66 | 1 | 3.0 | 4.0 | 0.00 | 0.00 | 0.00 | 82 | 1010.5 |
| 20260510073203 | 66 | 11 | 2.0 | 4.0 | 0.00 | 0.00 | 0.00 | 83 | 1010.4 |
| 20260510072803 | 65 | 10 | 2.0 | 4.0 | 0.00 | 0.00 | 0.00 | 83 | 1010.3 |
| 20260510072615 | 65 | 2 | 1.0 | 4.0 | 0.00 | 0.00 | 0.00 | 83 | 1010.5 |
| 20260510072214 | 65 | 357 | 2.0 | 4.0 | 0.00 | 0.00 | 0.00 | 84 | 1010.7 |
| 20260510071814 | 65 | 345 | 1.0 | 4.0 | 0.00 | 0.00 | 0.00 | 84 | 1010.6 |
| 20260510071413 | 65 | 360 | 2.0 | 4.0 | 0.00 | 0.00 | 0.00 | 84 | 1010.5 |
| 20260510071018 | 64 | 360 | 0.0 | 4.0 | 0.00 | 0.00 | 0.00 | 85 | 1010.5 |
| 20260510070403 | 64 | 352 | 2.0 | 4.0 | 0.00 | 0.00 | 0.00 | 84 | 1010.5 |
| 20260510070004 | 64 | 2 | 2.0 | 4.0 | 0.00 | 0.00 | 0.00 | 84 | 1010.6 |
| 20260510065603 | 64 | 355 | 0.0 | 2.0 | 0.00 | 0.00 | 0.00 | 85 | 1010.5 |
| 20260510065203 | 64 | 27 | 0.0 | 2.0 | 0.00 | 0.00 | 0.00 | 85 | 1010.4 |
| 20260510065014 | 64 | 28 | 1.0 | 2.0 | 0.00 | 0.00 | 0.00 | 84 | 1010.4 |
| 20260510064403 | 64 | 99 | 0.0 | 2.0 | 0.00 | 0.00 | 0.00 | 86 | 1010.7 |
| 20260510064003 | 63 | 95 | 0.0 | 2.0 | 0.00 | 0.00 | 0.00 | 87 | 1010.7 |
| 20260510063603 | 63 | 58 | 1.0 | 2.0 | 0.00 | 0.00 | 0.00 | 87 | 1010.9 |
| 20260510063203 | 62 | 38 | 1.0 | 2.0 | 0.00 | 0.00 | 0.00 | 88 | 1010.8 |
| 20260510062803 | 62 | 15 | 0.0 | 2.0 | 0.00 | 0.00 | 0.00 | 87 | 1011.0 |
| 20260510062403 | 62 | 7 | 1.0 | 2.0 | 0.00 | 0.00 | 0.00 | 87 | 1010.7 |
| 20260510062003 | 62 | 359 | 1.0 | 2.0 | 0.00 | 0.00 | 0.00 | 86 | 1010.6 |
| 20260510061603 | 62 | 354 | 0.0 | 2.0 | 0.00 | 0.00 | 0.00 | 86 | 1010.8 |
| 20260510061203 | 62 | 351 | 0.0 | 2.0 | 0.00 | 0.00 | 0.00 | 86 | 1010.8 |
| 20260510060803 | 62 | 337 | 0.0 | 2.0 | 0.00 | 0.00 | 0.00 | 86 | 1010.8 |
| 20260510060403 | 62 | 0 | 0.0 | 0.0 | 0.00 | 0.00 | 0.00 | 86 | 1010.7 |
| 20260510060217 | 62 | 0 | 0.0 | 0.0 | 0.00 | 0.00 | 0.00 | 86 | 1011.0 |
| 20260510055816 | 62 | 0 | 0.0 | 0.0 | 0.00 | 0.00 | 0.00 | 87 | 1010.9 |
| 20260510055416 | 61 | 360 | 0.0 | 2.0 | 0.00 | 0.00 | 0.00 | 87 | 1010.9 |
| 20260510054803 | 61 | 7 | 0.0 | 2.0 | 0.00 | 0.00 | 0.00 | 87 | 1010.6 |
| 20260510054403 | 60 | 9 | 0.0 | 2.0 | 0.00 | 0.00 | 0.00 | 88 | 1010.7 |
| 20260510054003 | 60 | 7 | 1.0 | 4.0 | 0.00 | 0.00 | 0.00 | 87 | 1010.7 |
| 20260510053603 | 60 | 16 | 0.0 | 4.0 | 0.00 | 0.00 | 0.00 | 88 | 1010.7 |
| 20260510053203 | 60 | 29 | 1.0 | 4.0 | 0.00 | 0.00 | 0.00 | 88 | 1010.5 |
| 20260510052803 | 60 | 21 | 1.0 | 4.0 | 0.00 | 0.00 | 0.00 | 88 | 1010.6 |
| 20260510052403 | 60 | 4 | 1.0 | 4.0 | 0.00 | 0.00 | 0.00 | 88 | 1010.6 |
| 20260510052003 | 60 | 7 | 2.0 | 2.0 | 0.00 | 0.00 | 0.00 | 88 | 1010.4 |
| 20260510051603 | 60 | 360 | 0.0 | 2.0 | 0.00 | 0.00 | 0.00 | 88 | 1010.4 |
| 20260510051203 | 60 | 345 | 0.0 | 4.0 | 0.00 | 0.00 | 0.00 | 88 | 1010.5 |
| 20260510050803 | 60 | 356 | 0.0 | 4.0 | 0.00 | 0.00 | 0.00 | 88 | 1010.4 |
| 20260510050403 | 60 | 1 | 1.0 | 4.0 | 0.00 | 0.00 | 0.00 | 88 | 1010.4 |
| 20260510050212 | 60 | 6 | 0.0 | 2.0 | 0.00 | 0.00 | 0.00 | 88 | 1010.5 |
| 20260510045603 | 59 | 21 | 1.0 | 4.0 | 0.00 | 0.00 | 0.00 | 88 | 1010.6 |
| 20260510045203 | 59 | 3 | 1.0 | 4.0 | 0.00 | 0.00 | 0.00 | 88 | 1010.3 |
| 20260510044803 | 59 | 360 | 1.0 | 4.0 | 0.00 | 0.00 | 0.00 | 87 | 1010.4 |
| 20260510044403 | 59 | 17 | 1.0 | 4.0 | 0.00 | 0.00 | 0.00 | 87 | 1010.6 |
| 20260510044003 | 59 | 23 | 1.0 | 4.0 | 0.00 | 0.00 | 0.00 | 87 | 1010.4 |
| 20260510043603 | 60 | 25 | 0.0 | 4.0 | 0.00 | 0.00 | 0.00 | 87 | 1010.7 |
| 20260510043203 | 59 | 23 | 2.0 | 4.0 | 0.00 | 0.00 | 0.00 | 86 | 1010.6 |
| 20260510042803 | 59 | 22 | 1.0 | 4.0 | 0.00 | 0.00 | 0.00 | 86 | 1010.8 |
| 20260510042403 | 59 | 24 | 1.0 | 2.0 | 0.00 | 0.00 | 0.00 | 87 | 1010.7 |
| 20260510042003 | 59 | 27 | 1.0 | 2.0 | 0.00 | 0.00 | 0.00 | 87 | 1010.3 |
| 20260510041603 | 59 | 28 | 1.0 | 2.0 | 0.00 | 0.00 | 0.00 | 87 | 1010.7 |
| 20260510041203 | 59 | 18 | 0.0 | 4.0 | 0.00 | 0.00 | 0.00 | 87 | 1010.5 |
| 20260510040803 | 59 | 9 | 0.0 | 6.0 | 0.00 | 0.00 | 0.00 | 86 | 1010.7 |
| 20260510040403 | 59 | 9 | 2.0 | 6.0 | 0.00 | 0.00 | 0.00 | 86 | 1010.7 |
| 20260510040003 | 59 | 5 | 2.0 | 6.0 | 0.00 | 0.00 | 0.00 | 86 | 1010.6 |
| 20260510035603 | 59 | 30 | 0.0 | 2.0 | 0.00 | 0.00 | 0.00 | 87 | 1010.9 |
| 20260510035203 | 59 | 14 | 0.0 | 4.0 | 0.00 | 0.00 | 0.00 | 86 | 1010.7 |
| 20260510034803 | 60 | 12 | 0.0 | 4.0 | 0.00 | 0.00 | 0.00 | 85 | 1010.9 |
| 20260510034403 | 60 | 20 | 2.0 | 7.0 | 0.00 | 0.00 | 0.00 | 85 | 1010.8 |
| 20260510034004 | 60 | 19 | 2.0 | 7.0 | 0.00 | 0.00 | 0.00 | 85 | 1011.1 |
| 20260510033603 | 60 | 12 | 3.0 | 7.0 | 0.00 | 0.00 | 0.00 | 85 | 1010.8 |
| 20260510033203 | 60 | 12 | 2.0 | 4.0 | 0.00 | 0.00 | 0.00 | 86 | 1010.9 |
| 20260510032803 | 59 | 2 | 2.0 | 4.0 | 0.00 | 0.00 | 0.00 | 87 | 1011.2 |
| 20260510032403 | 59 | 9 | 0.0 | 4.0 | 0.00 | 0.00 | 0.00 | 87 | 1011.0 |
| 20260510032003 | 59 | 12 | 0.0 | 4.0 | 0.00 | 0.00 | 0.00 | 88 | 1010.9 |
| 20260510031603 | 59 | 10 | 1.0 | 4.0 | 0.00 | 0.00 | 0.00 | 88 | 1010.9 |
| 20260510031416 | 59 | 4 | 1.0 | 4.0 | 0.00 | 0.00 | 0.00 | 89 | 1010.9 |
| 20260510030803 | 58 | 3 | 2.0 | 4.0 | 0.00 | 0.00 | 0.00 | 92 | 1010.8 |
| 20260510030403 | 57 | 17 | 1.0 | 4.0 | 0.00 | 0.00 | 0.00 | 95 | 1011.2 |
| 20260510030003 | 57 | 22 | 1.0 | 4.0 | 0.00 | 0.00 | 0.00 | 96 | 1011.2 |
| 20260510025603 | 56 | 0 | 0.0 | 0.0 | 0.00 | 0.00 | 0.00 | 97 | 1011.2 |
| 20260510025203 | 56 | 0 | 0.0 | 0.0 | 0.00 | 0.00 | 0.00 | 97 | 1011.2 |
| 20260510024803 | 56 | 0 | 0.0 | 0.0 | 0.00 | 0.00 | 0.00 | 97 | 1011.0 |
| 20260510024403 | 56 | 0 | 0.0 | 0.0 | 0.00 | 0.00 | 0.00 | 97 | 1011.3 |
| 20260510024216 | 56 | 0 | 0.0 | 0.0 | 0.00 | 0.00 | 0.00 | 97 | 1011.3 |
| 20260510023603 | 56 | 0 | 0.0 | 0.0 | 0.00 | 0.00 | 0.00 | 96 | 1011.2 |
| 20260510023203 | 56 | 0 | 0.0 | 0.0 | 0.00 | 0.00 | 0.00 | 96 | 1011.3 |
| 20260510023014 | 56 | 0 | 0.0 | 0.0 | 0.00 | 0.00 | 0.00 | 96 | 1011.3 |
| 20260510022403 | 57 | 0 | 0.0 | 0.0 | 0.00 | 0.00 | 0.00 | 95 | 1011.4 |
| 20260510022217 | 57 | 0 | 0.0 | 0.0 | 0.00 | 0.00 | 0.00 | 95 | 1011.3 |
| 20260510021603 | 57 | 0 | 0.0 | 0.0 | 0.00 | 0.00 | 0.00 | 95 | 1011.7 |
| 20260510021203 | 57 | 0 | 0.0 | 0.0 | 0.00 | 0.00 | 0.00 | 94 | 1011.6 |
| 20260510021016 | 57 | 0 | 0.0 | 0.0 | 0.00 | 0.00 | 0.00 | 94 | 1011.5 |
| 20260510020615 | 58 | 0 | 0.0 | 0.0 | 0.00 | 0.00 | 0.00 | 94 | 1011.4 |
| 20260510020004 | 58 | 0 | 0.0 | 0.0 | 0.00 | 0.00 | 0.00 | 94 | 1011.5 |
| 20260510015603 | 59 | 0 | 0.0 | 0.0 | 0.00 | 0.00 | 0.00 | 93 | 1011.5 |
| 20260510015203 | 59 | 0 | 0.0 | 0.0 | 0.00 | 0.00 | 0.00 | 93 | 1011.6 |
| 20260510015017 | 59 | 0 | 0.0 | 0.0 | 0.00 | 0.00 | 0.00 | 93 | 1011.5 |
| 20260510014403 | 59 | 360 | 0.0 | 2.0 | 0.00 | 0.00 | 0.00 | 92 | 1011.6 |
| 20260510014003 | 59 | 360 | 0.0 | 2.0 | 0.00 | 0.00 | 0.00 | 92 | 1011.5 |
| 20260510013603 | 59 | 360 | 0.0 | 2.0 | 0.00 | 0.00 | 0.00 | 92 | 1011.4 |
| 20260510013203 | 59 | 360 | 0.0 | 2.0 | 0.00 | 0.00 | 0.00 | 92 | 1011.5 |
| 20260510013014 | 59 | 360 | 0.0 | 2.0 | 0.00 | 0.00 | 0.00 | 92 | 1011.6 |
| 20260510012614 | 59 | 360 | 0.0 | 2.0 | 0.00 | 0.00 | 0.00 | 91 | 1011.6 |
| 20260510012213 | 59 | 22 | 0.0 | 2.0 | 0.00 | 0.00 | 0.00 | 91 | 1011.4 |
| 20260510011817 | 59 | 16 | 0.0 | 2.0 | 0.00 | 0.00 | 0.00 | 90 | 1011.7 |
| 20260510011417 | 60 | 12 | 0.0 | 2.0 | 0.00 | 0.00 | 0.00 | 90 | 1011.8 |
| 20260510010803 | 59 | 360 | 0.0 | 2.0 | 0.00 | 0.00 | 0.00 | 90 | 1011.7 |
| 20260510010403 | 59 | 360 | 0.0 | 2.0 | 0.00 | 0.00 | 0.00 | 89 | 1011.9 |
| 20260510010004 | 59 | 4 | 0.0 | 2.0 | 0.00 | 0.00 | 0.00 | 89 | 1011.8 |
| 20260510005603 | 59 | 5 | 0.0 | 2.0 | 0.00 | 0.00 | 0.00 | 89 | 1011.6 |
| 20260510005203 | 59 | 343 | 1.0 | 2.0 | 0.00 | 0.00 | 0.00 | 89 | 1011.8 |
| 20260510004803 | 59 | 337 | 0.0 | 2.0 | 0.00 | 0.00 | 0.00 | 89 | 1011.5 |
| 20260510004612 | 59 | 337 | 0.0 | 2.0 | 0.00 | 0.00 | 0.00 | 89 | 1011.7 |
| 20260510004003 | 58 | 0 | 0.0 | 0.0 | 0.00 | 0.00 | 0.00 | 90 | 1011.8 |
| 20260510003603 | 58 | 0 | 0.0 | 0.0 | 0.00 | 0.00 | 0.00 | 90 | 1012.0 |
| 20260510003203 | 58 | 0 | 0.0 | 0.0 | 0.00 | 0.00 | 0.00 | 91 | 1011.8 |
| 20260510002803 | 58 | 0 | 0.0 | 0.0 | 0.00 | 0.00 | 0.00 | 91 | 1012.1 |
| 20260510002403 | 57 | 0 | 0.0 | 0.0 | 0.00 | 0.00 | 0.00 | 91 | 1012.2 |
| 20260510002003 | 57 | 0 | 0.0 | 0.0 | 0.00 | 0.00 | 0.00 | 90 | 1011.9 |
| 20260510001603 | 58 | 0 | 0.0 | 0.0 | 0.00 | 0.00 | 0.00 | 90 | 1011.9 |
| 20260510001203 | 58 | 0 | 0.0 | 0.0 | 0.00 | 0.00 | 0.00 | 89 | 1011.9 |
| 20260510000803 | 58 | 0 | 0.0 | 0.0 | 0.00 | 0.00 | 0.00 | 88 | 1012.0 |
| 20260510000404 | 58 | 0 | 0.0 | 0.0 | 0.00 | 0.00 | 0.00 | 88 | 1012.1 |
| 20260510000004 | 58 | 0 | 0.0 | 0.0 | 0.00 | 0.00 | 0.00 | 88 | 1012.1 |
| 20260509235603 | 58 | 0 | 0.0 | 0.0 | 0.00 | 0.00 | 0.00 | 88 | 1012.0 |
| 20260509235203 | 59 | 0 | 0.0 | 0.0 | 0.00 | 0.00 | 0.00 | 88 | 1011.9 |
| 20260509234803 | 59 | 0 | 0.0 | 0.0 | 0.00 | 0.00 | 0.00 | 88 | 1012.2 |
| 20260509234613 | 59 | 0 | 0.0 | 0.0 | 0.00 | 0.00 | 0.00 | 87 | 1012.0 |
| 20260509234218 | 59 | 0 | 0.0 | 0.0 | 0.00 | 0.00 | 0.00 | 87 | 1012.2 |
| 20260509233817 | 59 | 0 | 0.0 | 0.0 | 0.00 | 0.00 | 0.00 | 87 | 1012.3 |
| 20260509233416 | 59 | 0 | 0.0 | 0.0 | 0.00 | 0.00 | 0.00 | 87 | 1012.3 |
| 20260509232803 | 58 | 0 | 0.0 | 0.0 | 0.00 | 0.00 | 0.00 | 87 | 1012.3 |
| 20260509232403 | 59 | 0 | 0.0 | 0.0 | 0.00 | 0.00 | 0.00 | 87 | 1012.4 |
| 20260509232003 | 59 | 0 | 0.0 | 0.0 | 0.00 | 0.00 | 0.00 | 87 | 1012.3 |
| 20260509231603 | 58 | 0 | 0.0 | 0.0 | 0.00 | 0.00 | 0.00 | 88 | 1012.1 |
| 20260509231203 | 58 | 0 | 0.0 | 0.0 | 0.00 | 0.00 | 0.00 | 88 | 1012.4 |
| 20260509231017 | 58 | 0 | 0.0 | 0.0 | 0.00 | 0.00 | 0.00 | 88 | 1012.4 |
| 20260509230403 | 58 | 0 | 0.0 | 0.0 | 0.00 | 0.00 | 0.00 | 87 | 1012.5 |
| 20260509230216 | 59 | 0 | 0.0 | 0.0 | 0.00 | 0.00 | 0.00 | 87 | 1012.3 |
| 20260509225603 | 59 | 0 | 0.0 | 0.0 | 0.00 | 0.00 | 0.00 | 85 | 1012.4 |
| 20260509225203 | 59 | 0 | 0.0 | 0.0 | 0.00 | 0.00 | 0.00 | 85 | 1012.2 |
| 20260509224803 | 60 | 0 | 0.0 | 0.0 | 0.00 | 0.00 | 0.00 | 85 | 1012.1 |
| 20260509224403 | 60 | 0 | 0.0 | 0.0 | 0.00 | 0.00 | 0.00 | 84 | 1012.3 |
| 20260509224213 | 60 | 0 | 0.0 | 0.0 | 0.00 | 0.00 | 0.00 | 83 | 1012.2 |
| 20260509223603 | 60 | 0 | 0.0 | 0.0 | 0.00 | 0.00 | 0.00 | 83 | 1012.3 |
| 20260509223203 | 61 | 0 | 0.0 | 0.0 | 0.00 | 0.00 | 0.00 | 81 | 1012.2 |
| 20260509223016 | 61 | 0 | 0.0 | 0.0 | 0.00 | 0.00 | 0.00 | 81 | 1012.4 |
| 20260509222403 | 61 | 0 | 0.0 | 0.0 | 0.00 | 0.00 | 0.00 | 80 | 1012.5 |
| 20260509222003 | 61 | 0 | 0.0 | 0.0 | 0.00 | 0.00 | 0.00 | 81 | 1012.3 |
| 20260509221603 | 61 | 0 | 0.0 | 0.0 | 0.00 | 0.00 | 0.00 | 81 | 1012.0 |
| 20260509221414 | 61 | 0 | 0.0 | 0.0 | 0.00 | 0.00 | 0.00 | 81 | 1012.4 |
| 20260509220803 | 61 | 0 | 0.0 | 0.0 | 0.00 | 0.00 | 0.00 | 81 | 1012.3 |
| 20260509220403 | 61 | 0 | 0.0 | 0.0 | 0.00 | 0.00 | 0.00 | 80 | 1012.3 |
| 20260509220007 | 61 | 0 | 0.0 | 0.0 | 0.00 | 0.00 | 0.00 | 81 | 1012.4 |
| 20260509215603 | 62 | 0 | 0.0 | 0.0 | 0.00 | 0.00 | 0.00 | 81 | 1012.3 |
| 20260509215416 | 62 | 0 | 0.0 | 0.0 | 0.00 | 0.00 | 0.00 | 81 | 1012.3 |
| 20260509215015 | 62 | 0 | 0.0 | 0.0 | 0.00 | 0.00 | 0.00 | 80 | 1012.2 |
| 20260509214403 | 62 | 0 | 0.0 | 0.0 | 0.00 | 0.00 | 0.00 | 80 | 1012.4 |
| 20260509214214 | 62 | 0 | 0.0 | 0.0 | 0.00 | 0.00 | 0.00 | 80 | 1012.2 |
| 20260509213603 | 62 | 0 | 0.0 | 0.0 | 0.00 | 0.00 | 0.00 | 79 | 1012.2 |
| 20260509213203 | 62 | 0 | 0.0 | 0.0 | 0.00 | 0.00 | 0.00 | 79 | 1012.3 |
| 20260509212803 | 62 | 0 | 0.0 | 0.0 | 0.00 | 0.00 | 0.00 | 79 | 1012.3 |
| 20260509212403 | 62 | 0 | 0.0 | 0.0 | 0.00 | 0.00 | 0.00 | 78 | 1012.3 |
| 20260509212003 | 62 | 0 | 0.0 | 0.0 | 0.00 | 0.00 | 0.00 | 79 | 1012.4 |
| 20260509211603 | 62 | 0 | 0.0 | 0.0 | 0.00 | 0.00 | 0.00 | 79 | 1012.6 |
| 20260509211203 | 63 | 22 | 0.0 | 2.0 | 0.00 | 0.00 | 0.00 | 78 | 1012.2 |
| 20260509210803 | 63 | 22 | 0.0 | 2.0 | 0.00 | 0.00 | 0.00 | 77 | 1012.3 |
| 20260509210403 | 63 | 22 | 0.0 | 2.0 | 0.00 | 0.00 | 0.00 | 77 | 1012.3 |
| 20260509210003 | 63 | 0 | 0.0 | 0.0 | 0.00 | 0.00 | 0.00 | 78 | 1012.3 |
| 20260509205603 | 64 | 341 | 0.0 | 4.0 | 0.00 | 0.00 | 0.00 | 76 | 1012.4 |
| 20260509205203 | 64 | 339 | 0.0 | 4.0 | 0.00 | 0.00 | 0.00 | 76 | 1012.0 |
| 20260509204804 | 64 | 334 | 0.0 | 4.0 | 0.00 | 0.00 | 0.00 | 76 | 1012.3 |
| 20260509204404 | 63 | 337 | 0.0 | 2.0 | 0.00 | 0.00 | 0.00 | 76 | 1012.1 |
| 20260509204003 | 63 | 0 | 0.0 | 0.0 | 0.00 | 0.00 | 0.00 | 77 | 1012.2 |
| 20260509203603 | 62 | 0 | 0.0 | 0.0 | 0.00 | 0.00 | 0.00 | 78 | 1012.0 |
| 20260509203203 | 62 | 0 | 0.0 | 0.0 | 0.00 | 0.00 | 0.00 | 77 | 1012.0 |
| 20260509202803 | 62 | 0 | 0.0 | 0.0 | 0.00 | 0.00 | 0.00 | 78 | 1012.1 |
| 20260509202403 | 62 | 0 | 0.0 | 0.0 | 0.00 | 0.00 | 0.00 | 79 | 1012.2 |
| 20260509202003 | 62 | 0 | 0.0 | 0.0 | 0.00 | 0.00 | 0.00 | 78 | 1011.9 |
| 20260509201816 | 62 | 0 | 0.0 | 0.0 | 0.00 | 0.00 | 0.00 | 79 | 1012.1 |
| 20260509201203 | 63 | 157 | 0.0 | 2.0 | 0.00 | 0.00 | 0.00 | 78 | 1012.0 |
| 20260509200803 | 63 | 157 | 0.0 | 2.0 | 0.00 | 0.00 | 0.00 | 78 | 1012.1 |
| 20260509200403 | 63 | 157 | 0.0 | 2.0 | 0.00 | 0.00 | 0.00 | 77 | 1011.9 |
| 20260509200213 | 63 | 0 | 0.0 | 0.0 | 0.00 | 0.00 | 0.00 | 77 | 1011.8 |
| 20260509195812 | 64 | 0 | 0.0 | 0.0 | 0.00 | 0.00 | 0.00 | 78 | 1011.9 |
| 20260509195417 | 64 | 0 | 0.0 | 0.0 | 0.00 | 0.00 | 0.00 | 77 | 1011.9 |
| 20260509194803 | 64 | 0 | 0.0 | 0.0 | 0.00 | 0.00 | 0.00 | 77 | 1011.8 |
| 20260509194616 | 64 | 0 | 0.0 | 0.0 | 0.00 | 0.00 | 0.00 | 78 | 1011.8 |
| 20260509194003 | 64 | 0 | 0.0 | 0.0 | 0.00 | 0.00 | 0.00 | 78 | 1011.6 |
| 20260509193603 | 64 | 0 | 0.0 | 0.0 | 0.00 | 0.00 | 0.00 | 77 | 1011.6 |
| 20260509193203 | 64 | 0 | 0.0 | 0.0 | 0.00 | 0.00 | 0.00 | 78 | 1011.7 |
| 20260509193013 | 64 | 0 | 0.0 | 0.0 | 0.00 | 0.00 | 0.00 | 78 | 1011.7 |
| 20260509192403 | 65 | 0 | 0.0 | 0.0 | 0.00 | 0.00 | 0.00 | 76 | 1011.6 |
| 20260509192003 | 65 | 0 | 0.0 | 0.0 | 0.00 | 0.00 | 0.00 | 76 | 1011.7 |
| 20260509191603 | 66 | 67 | 0.0 | 2.0 | 0.00 | 0.00 | 0.00 | 75 | 1011.5 |
| 20260509191203 | 66 | 82 | 0.0 | 2.0 | 0.00 | 0.00 | 0.00 | 73 | 1011.4 |
| 20260509190803 | 66 | 82 | 0.0 | 2.0 | 0.00 | 0.00 | 0.00 | 73 | 1011.7 |
| 20260509190403 | 66 | 90 | 0.0 | 2.0 | 0.00 | 0.00 | 0.00 | 73 | 1011.5 |
| 20260509190003 | 66 | 101 | 0.0 | 2.0 | 0.00 | 0.00 | 0.00 | 72 | 1011.3 |
| 20260509185603 | 67 | 95 | 0.0 | 2.0 | 0.00 | 0.00 | 0.00 | 72 | 1011.5 |
| 20260509185203 | 67 | 84 | 0.0 | 4.0 | 0.00 | 0.00 | 0.00 | 71 | 1011.3 |
| 20260509185017 | 67 | 85 | 0.0 | 4.0 | 0.00 | 0.00 | 0.00 | 70 | 1011.3 |
| 20260509184403 | 68 | 84 | 2.0 | 4.0 | 0.00 | 0.00 | 0.00 | 69 | 1011.2 |
| 20260509184003 | 69 | 87 | 2.0 | 4.0 | 0.00 | 0.00 | 0.00 | 68 | 1011.1 |
| 20260509183603 | 69 | 86 | 2.0 | 6.0 | 0.00 | 0.00 | 0.00 | 68 | 1011.2 |
| 20260509183203 | 69 | 88 | 3.0 | 6.0 | 0.00 | 0.00 | 0.00 | 67 | 1011.0 |
| 20260509182803 | 69 | 90 | 3.0 | 8.0 | 0.00 | 0.00 | 0.00 | 67 | 1011.2 |
| 20260509182403 | 69 | 90 | 4.0 | 8.0 | 0.00 | 0.00 | 0.00 | 67 | 1011.0 |
| 20260509182003 | 70 | 92 | 3.0 | 8.0 | 0.00 | 0.00 | 0.00 | 67 | 1011.0 |
| 20260509181603 | 70 | 93 | 2.0 | 6.0 | 0.00 | 0.00 | 0.00 | 67 | 1010.9 |
| 20260509181203 | 70 | 89 | 2.0 | 6.0 | 0.00 | 0.00 | 0.00 | 67 | 1010.8 |
| 20260509180803 | 71 | 87 | 2.0 | 6.0 | 0.00 | 0.00 | 0.00 | 67 | 1010.9 |
| 20260509180403 | 71 | 88 | 3.0 | 6.0 | 0.00 | 0.00 | 0.00 | 66 | 1011.1 |
| 20260509180003 | 71 | 89 | 2.0 | 6.0 | 0.00 | 0.00 | 0.00 | 66 | 1011.0 |
| 20260509175603 | 71 | 93 | 2.0 | 4.0 | 0.00 | 0.00 | 0.00 | 66 | 1010.9 |
| 20260509175203 | 71 | 87 | 3.0 | 4.0 | 0.00 | 0.00 | 0.00 | 66 | 1011.1 |
| 20260509174803 | 71 | 91 | 1.0 | 7.0 | 0.00 | 0.00 | 0.00 | 66 | 1011.0 |
| 20260509174403 | 72 | 82 | 2.0 | 7.0 | 0.00 | 0.00 | 0.00 | 65 | 1010.8 |
| 20260509174003 | 72 | 90 | 2.0 | 7.0 | 0.00 | 0.00 | 0.00 | 65 | 1010.8 |
| 20260509173603 | 72 | 94 | 4.0 | 8.0 | 0.00 | 0.00 | 0.00 | 65 | 1011.0 |
| 20260509173203 | 73 | 96 | 4.0 | 8.0 | 0.00 | 0.00 | 0.00 | 64 | 1011.0 |
| 20260509172803 | 73 | 94 | 3.0 | 6.0 | 0.00 | 0.00 | 0.00 | 63 | 1011.0 |
| 20260509172403 | 73 | 94 | 2.0 | 4.0 | 0.00 | 0.00 | 0.00 | 63 | 1010.9 |
| 20260509172003 | 73 | 93 | 3.0 | 6.0 | 0.00 | 0.00 | 0.00 | 63 | 1010.9 |
| 20260509171603 | 74 | 88 | 2.0 | 6.0 | 0.00 | 0.00 | 0.00 | 63 | 1010.8 |
| 20260509171417 | 74 | 90 | 2.0 | 6.0 | 0.00 | 0.00 | 0.00 | 63 | 1011.0 |
| 20260509170803 | 74 | 87 | 2.0 | 6.0 | 0.00 | 0.00 | 0.00 | 63 | 1010.9 |
| 20260509170403 | 74 | 107 | 1.0 | 7.0 | 0.00 | 0.00 | 0.00 | 63 | 1011.0 |
| 20260509170003 | 74 | 103 | 4.0 | 8.0 | 0.00 | 0.00 | 0.00 | 62 | 1010.8 |
| 20260509165814 | 74 | 103 | 3.0 | 8.0 | 0.00 | 0.00 | 0.00 | 63 | 1010.8 |
| 20260509165203 | 74 | 89 | 2.0 | 8.0 | 0.00 | 0.00 | 0.00 | 61 | 1011.1 |
| 20260509164803 | 74 | 82 | 3.0 | 9.0 | 0.00 | 0.00 | 0.00 | 61 | 1010.8 |
| 20260509164403 | 74 | 86 | 4.0 | 9.0 | 0.00 | 0.00 | 0.00 | 62 | 1010.8 |
| 20260509164003 | 74 | 87 | 2.0 | 9.0 | 0.00 | 0.00 | 0.00 | 62 | 1010.9 |
| 20260509163603 | 74 | 88 | 2.0 | 7.0 | 0.00 | 0.00 | 0.00 | 62 | 1011.0 |
| 20260509163416 | 74 | 83 | 4.0 | 7.0 | 0.00 | 0.00 | 0.00 | 61 | 1010.7 |
| 20260509162803 | 75 | 84 | 4.0 | 7.0 | 0.00 | 0.00 | 0.00 | 60 | 1011.0 |
| 20260509162614 | 75 | 84 | 2.0 | 7.0 | 0.00 | 0.00 | 0.00 | 61 | 1011.0 |
| 20260509162003 | 75 | 94 | 3.0 | 11.0 | 0.00 | 0.00 | 0.00 | 60 | 1010.9 |
| 20260509161603 | 75 | 92 | 4.0 | 11.0 | 0.00 | 0.00 | 0.00 | 59 | 1011.2 |
| 20260509161203 | 76 | 84 | 7.0 | 9.0 | 0.00 | 0.00 | 0.00 | 59 | 1011.0 |
| 20260509161017 | 76 | 83 | 4.0 | 9.0 | 0.00 | 0.00 | 0.00 | 59 | 1011.2 |
| 20260509160403 | 76 | 74 | 5.0 | 9.0 | 0.00 | 0.00 | 0.00 | 57 | 1011.1 |
| 20260509160004 | 78 | 78 | 3.0 | 6.0 | 0.00 | 0.00 | 0.00 | 55 | 1011.0 |
| 20260509155603 | 78 | 79 | 4.0 | 6.0 | 0.00 | 0.00 | 0.00 | 51 | 1010.8 |
| 20260509155203 | 78 | 89 | 0.0 | 4.0 | 0.00 | 0.00 | 0.00 | 53 | 1011.0 |
| 20260509154803 | 79 | 101 | 1.0 | 4.0 | 0.00 | 0.00 | 0.00 | 48 | 1011.1 |
| 20260509154403 | 80 | 135 | 2.0 | 2.0 | 0.00 | 0.00 | 0.00 | 47 | 1011.0 |
| 20260509154003 | 80 | 125 | 1.0 | 4.0 | 0.00 | 0.00 | 0.00 | 47 | 1010.9 |
| 20260509153603 | 78 | 91 | 1.0 | 8.0 | 0.00 | 0.00 | 0.00 | 46 | 1010.9 |
| 20260509153203 | 77 | 89 | 1.0 | 8.0 | 0.00 | 0.00 | 0.00 | 51 | 1011.0 |
| 20260509152803 | 78 | 107 | 2.0 | 7.0 | 0.00 | 0.00 | 0.00 | 49 | 1011.0 |
| 20260509152403 | 79 | 105 | 1.0 | 13.0 | 0.00 | 0.00 | 0.00 | 49 | 1011.0 |
| 20260509152003 | 79 | 88 | 1.0 | 13.0 | 0.00 | 0.00 | 0.00 | 49 | 1011.2 |
| 20260509151604 | 78 | 87 | 1.0 | 13.0 | 0.00 | 0.00 | 0.00 | 51 | 1011.2 |
| 20260509151204 | 78 | 97 | 0.0 | 8.0 | 0.00 | 0.00 | 0.00 | 50 | 1011.0 |
| 20260509150803 | 80 | 119 | 4.0 | 8.0 | 0.00 | 0.00 | 0.00 | 49 | 1011.1 |
| 20260509150403 | 81 | 154 | 1.0 | 6.0 | 0.00 | 0.00 | 0.00 | 50 | 1011.3 |
| 20260509150004 | 80 | 113 | 1.0 | 6.0 | 0.00 | 0.00 | 0.00 | 49 | 1011.1 |
| 20260509145603 | 80 | 108 | 2.0 | 6.0 | 0.00 | 0.00 | 0.00 | 50 | 1011.4 |
| 20260509145203 | 79 | 96 | 2.0 | 6.0 | 0.00 | 0.00 | 0.00 | 51 | 1011.3 |
| 20260509144403 | 79 | 100 | 1.0 | 9.0 | 0.00 | 0.00 | 0.00 | 52 | 1011.4 |
| 20260509144003 | 80 | 92 | 1.0 | 6.0 | 0.00 | 0.00 | 0.00 | 48 | 1011.3 |
| 20260509143603 | 80 | 97 | 2.0 | 6.0 | 0.00 | 0.00 | 0.00 | 51 | 1011.2 |
| 20260509143417 | 80 | 161 | 3.0 | 7.0 | 0.00 | 0.00 | 0.00 | 51 | 1011.1 |
| 20260509142803 | 80 | 201 | 1.0 | 7.0 | 0.00 | 0.00 | 0.00 | 49 | 1011.3 |
| 20260509142403 | 80 | 180 | 2.0 | 4.0 | 0.00 | 0.00 | 0.00 | 47 | 1011.6 |
| 20260509142215 | 80 | 175 | 2.0 | 4.0 | 0.00 | 0.00 | 0.00 | 47 | 1011.5 |
| 20260509141603 | 81 | 175 | 2.0 | 4.0 | 0.00 | 0.00 | 0.00 | 49 | 1011.3 |
| 20260509141203 | 81 | 196 | 2.0 | 4.0 | 0.00 | 0.00 | 0.00 | 47 | 1011.5 |
| 20260509140804 | 82 | 173 | 2.0 | 4.0 | 0.00 | 0.00 | 0.00 | 42 | 1011.7 |
| 20260509140403 | 81 | 155 | 0.0 | 4.0 | 0.00 | 0.00 | 0.00 | 43 | 1011.7 |
| 20260509140004 | 81 | 151 | 0.0 | 4.0 | 0.00 | 0.00 | 0.00 | 46 | 1011.7 |
| 20260509135603 | 81 | 132 | 2.0 | 4.0 | 0.00 | 0.00 | 0.00 | 46 | 1011.7 |